Tracking 21992 objects as of 27-Nov-2020
HD Live streaming from Space Station
objects crossing your sky now

RADUGA 6

Track RADUGA 6 now!
RADUGA 6 is classified as:


NORAD ID: 11708
Int'l Code: 1980-016A
Perigee: 35,780.7 km
Apogee: 35,786.7 km
Inclination: 10.5 °
Period: 1,435.6 minutes
Semi major axis: 42154 km
RCS: 1.2589 m2 (large)
Launch date: February 20, 1980
Source: Commonwealth of Independent States (former USSR) (CIS)
Launch site: TYURATAM MISSILE AND SPACE COMPLEX (TTMTR)
aabbcc
Your satellite tracking list
Your tracking list is empty




NASA's NSSDC Master Catalog

Two Line Element Set (TLE):
1 11708U 80016A   20331.87580101 -.00000328 +00000-0 +00000-0 0  9995
2 11708 010.5265 308.9728 0000713 234.3655 301.2758 01.00307590101827
Source of the keplerian elements: AFSPC